Simultaneous Nadir Overpasses (SNOs) Predictions

Prediction of SNOs between METOP-B and TERRA Satellite Orbit:

Table of predicted SNOs for the next 14.0 days since TLE Epoch: 8/18/2018
Index Date (METOP-B) Time (METOP-B) Lat,Lon (METOP-B) SZA (METOP-B ) Date (TERRA) Time (TERRA) Lat,Lon (TERRA) SZA (TERRA ) Distance(km) Time Diff (sec)
1 08/19/2018 19:46:24 -81.36, 111.34 108.42 08/19/2018 19:47:03 -81.35, 111.39 108.39 0.94 39
2 08/19/2018 20:37:04 81.36, -81.03 71.64 08/19/2018 20:36:29 81.36, -80.85 71.64 3.04 35
3 08/22/2018 15:20:43 -81.36, 177.95 107.44 08/22/2018 15:21:17 -81.37, 178.09 107.41 2.58 34
4 08/22/2018 16:11:23 81.36, -14.48 72.60 08/22/2018 16:10:44 81.35, -14.55 72.57 1.60 39
5 08/25/2018 10:55:02 -81.36,-115.46 106.45 08/25/2018 10:55:32 -81.36,-115.63 106.45 2.72 30
6 08/25/2018 11:45:42 81.36, 52.07 73.59 08/25/2018 11:44:58 81.36, 52.10 73.58 0.56 44
7 08/28/2018 06:29:21 -81.36, -49.28 105.48 08/28/2018 06:29:46 -81.35, -49.37 105.48 1.88 25
8 08/28/2018 07:20:00 81.36, 118.60 74.61 08/28/2018 07:19:11 81.37, 118.72 74.60 2.26 49
9 08/31/2018 02:03:40 -81.36, 17.29 104.44 08/31/2018 02:04:00 -81.36, 17.23 104.44 0.99 20




NCC Satellite Simultaneous Nadir Overpasses (SNOs) Prediction Service
